Flag for Austria Weather past 2 weeks in Hollabrunn, Lower Austria, Austria

Now
91 °F

Hot.


Feels Like: 90 °F
Forecast: 60 / 71 °F
Wind: 5 mph from Southeast

Location: Retz

Current Time: Sep 1, 2015 at 4:41:18 PM

Latest Report: Sep 1, 2015 at 4:00 PM


Visibility: N/A

Pressure: 29.68 "Hg

Humidity: 30%

Dew point: 56 °F

Location of HollabrunnLocation

Historic Weather in Hollabrunn — Graph

°F

Hollabrunn temperature yesterday

Maximum temperature yesterday: 92 °F (at 5:00 PM)
Minimum temperature yesterday: 67 °F (at 6:00 AM)
Average temperature yesterday: 79 °F

Past Weeks' High & Low Weather Summary

 TemperatureHumidityPressure
High93 °F (Aug 30, 6:00 PM)98% (Aug 28, 8:00 AM)30.23 "Hg (Aug 28, 8:00 AM)
Low55 °F (Aug 26, 7:00 AM)22% (Aug 31, 5:00 PM)29.70 "Hg (Sep 1, 3:00 PM)
Average69 °F65%30.00 "Hg
* Reported Aug 17 3:00 PM — Sep 1 3:00 PM, Hollabrunn, Weather by CustomWeather, © 2015

Note: Actual official high and low records may vary slightly from our data, if they occured in-between our weather recording intervals... More about our weather records

Advertising

Hollabrunn weather history for previous 24 hours

 ConditionsComfort  
Time TempWeatherWind HumidityBarometerVisibility
3:00 PM
Tue, Sep 1
91 °FHot.5 mph31%29.70 "HgN/A
2:00 PM90 °FPassing clouds.2 mph34%29.72 "Hg17 mi
1:00 PM88 °FPleasantly warm.3 mph38%29.74 "HgN/A
12:00 PM84 °FWarm.2 mph41%29.76 "HgN/A
11:00 AM80 °FWarm.1 mph45%29.79 "HgN/A
10:00 AM76 °FMild.1 mph48%29.80 "HgN/A
9:00 AM71 °FMild.1 mph56%29.81 "HgN/A
8:00 AM69 °FSunny.1 mph63%29.82 "Hg9 mi
7:00 AM68 °FSunny.No wind54%29.82 "Hg9 mi
6:00 AM68 °FMild.1 mph52%29.82 "HgN/A
5:00 AM70 °FMild.1 mph48%29.81 "HgN/A
4:00 AM71 °FMild.1 mph47%29.81 "HgN/A
3:00 AM72 °FMild.1 mph45%29.80 "HgN/A
2:00 AM74 °FMild.1 mph41%29.81 "HgN/A
1:00 AM76 °FMild.2 mph39%29.82 "HgN/A
12:00 AM77 °FPleasantly warm.2 mph36%29.82 "HgN/A
10:00 PM
Mon, Aug 31
81 °FPleasantly warm.1 mph32%29.82 "HgN/A
9:00 PM82 °FPleasantly warm.1 mph30%29.83 "HgN/A
8:00 PM84 °FClear.2 mph28%29.80 "Hg11 mi
7:00 PM87 °FPleasantly warm.3 mph28%29.81 "HgN/A
6:00 PM90 °FHot.3 mph25%29.81 "HgN/A
5:00 PM92 °FHot.2 mph22%29.82 "HgN/A
4:00 PM92 °FHot.5 mph28%29.84 "HgN/A
Weather by CustomWeather, © 2015

See weather overviewHow to use our weather pages